Location: Haliburton Scout Reserve
(45.0900°N, 78.3200°W)
Time: 21:15:26
(UTC-04:00)

CAS-4B - Pass Details

Date: 29 May 2022
Orbit: 523 x 537 km, 43.0° (Epoch: 28 June)

Event Time Altitude Azimuth Distance (km) Brightness Sun altitude
Rises 21:53:26 0° 276° (W) 2,660 ? -9.5°
Reaches altitude 10° 21:55:51 10° 266° (W) 1,766 ? -9.8°
Maximum altitude 21:59:24 30° 205° (SSW) 963 ? -10.2°
Enters shadow 22:02:07 15° 150° (SSE) 1,488 ? -10.6°
